[[{"header":{"parameterUnit":"m.s-1","parameterCategory":1,"la1":30.2991,"la2":30.254,"lo1":-89.0895,"lo2":-89.0444,"dy":0.0017,"dx":0.0017,"nx":28,"ny":28,"refTime":"2023-08-18T09:00:00:Z","depth":0,"parameterNumber":2,"parameterNumberName":"U-component_of_WINDS"},"data":[0,0,0,0,0,0,0,0,0,0,0,0,0,0,0,0,0,0,0,0,0,0,0,0,0,0,0,0,0,0,0,0,0,0,0,0,0,0,0,0,0,0,0,0,0,0,0,0,0,0,0,0,0,0,0,0,0,0,4.2945,4.2946,0,4.3085,4.3087,4.3088,4.3034,4.3031,4.3027,4.3024,4.3169,4.3176,4.3183,0,0,0,0,0,0,0,0,0,0,0,0,0,4.2628,4.2634,4.2944,4.2946,4.2948,4.3085,4.3087,4.3089,4.3035,4.3031,4.3027,4.3023,4.3167,4.3175,4.3183,0,0,0,0,0,0,0,0,0,0,0,0,0,4.2767,4.2636,4.2944,4.2937,4.2938,4.3085,4.3087,4.3089,4.3035,4.303,4.3026,4.3021,4.3164,4.3174,4.3184,4.3346,0,0,4.3216,4.322,0,0,0,0,0,0,0,0,4.2759,4.2778,4.2937,4.2938,4.2939,4.3037,4.3028,4.3175,4.3037,4.2999,4.3024,4.3019,4.3129,4.3142,4.3179,4.3353,4.3359,4.3217,4.3223,4.3228,4.3231,0,0,0,0,0,0,0,4.2749,4.2772,4.3,4.2939,4.2941,4.2927,4.2941,4.3056,4.309,4.3001,4.2998,4.3015,4.3129,4.3169,4.3182,4.3361,4.3217,4.3226,4.3232,4.3236,4.3671,4.3677,0,0,0,0,0,0,4.2739,4.2764,4.2996,4.3004,4.2835,4.2937,4.2953,4.3011,4.3088,4.3095,4.3019,4.3012,4.3154,4.317,4.3187,4.3379,4.3228,4.3237,4.3243,4.3666,4.3673,4.3678,0,0,0,0,0,0,4.2733,4.276,4.299,4.2883,4.2912,4.2947,4.3013,4.3016,4.3056,4.3102,4.3107,4.3054,4.3151,4.3173,4.3306,4.3384,4.3242,4.3251,4.366,4.3668,4.3676,4.3766,0,0,0,0,0,0,4.2724,4.2758,4.2821,4.2885,4.2918,4.3107,4.3018,4.3022,4.3074,4.3066,4.3136,4.3143,4.3149,4.3291,4.3316,4.3395,4.3259,4.3653,4.3664,4.3673,4.3756,4.3776,4.3793,0,0,0,0,0,4.2713,4.2841,4.2824,4.2852,4.2996,4.3112,4.313,4.3134,4.3081,4.3143,4.3172,4.3141,4.3371,4.3305,4.3333,4.3416,4.3648,4.3661,4.3672,4.3748,4.3772,4.3793,0,0,0,0,0,0,4.2785,4.285,4.2831,4.2985,4.3043,4.3102,4.3181,4.316,4.3235,4.3225,4.3227,4.3243,4.338,4.3412,4.3337,4.3575,4.3502,4.352,4.355,4.3573,4.3591,4.358,4.3268,0,0,0,0,0,4.2819,4.2908,4.2959,4.309,4.312,4.3146,4.3196,4.3194,4.3255,4.328,4.3318,4.3378,4.3464,4.3521,4.3602,4.3761,4.3774,4.3832,4.385,4.3865,4.3881,4.3964,4.399,4.3718,4.3718,4.3718,0,0,4.289,4.2936,4.2992,4.3105,4.315,4.3242,4.3167,4.3267,4.3335,4.3295,4.3423,4.3453,4.352,4.3667,4.3733,4.3697,4.3959,4.3881,4.3892,4.39,4.3979,4.4005,4.4028,4.3726,4.3725,4.3723,0,0,4.3065,4.311,4.3222,4.3268,4.3337,4.3353,4.338,4.3443,4.3461,4.3589,4.3561,4.3641,4.3789,4.3837,4.3881,4.4073,4.4047,4.41,4.4196,4.4278,4.4299,4.4318,4.4384,4.4408,4.4115,4.4115,4.4116,0,4.3145,4.3281,4.3283,4.3385,4.3434,4.3402,4.3515,4.356,4.3652,4.3687,4.3645,4.3829,4.3872,4.4028,4.4075,4.4112,4.4142,4.4091,4.4296,4.4315,4.4332,4.4396,4.4421,4.4121,4.4121,4.412,4.4119,0,4.3374,4.3469,4.3552,4.364,4.3699,4.3807,4.3823,4.3883,4.3875,4.3896,4.4025,4.4076,4.4166,4.4203,4.4197,4.4358,4.4333,4.4294,4.422,4.4364,4.4423,4.4448,4.413,4.4128,4.4126,4.4124,0,0,4.3599,4.3686,4.3716,4.3755,4.3828,4.3901,4.4006,4.4093,4.4144,4.4208,4.4295,4.4421,4.4384,4.4434,4.4433,4.4505,4.4651,4.4457,4.4458,4.4489,4.4828,4.4856,4.4884,4.4634,4.4639,4.4643,4.4822,0,4.3779,4.3962,4.3966,4.4134,4.4221,4.419,4.4281,4.4336,4.4357,4.4433,4.4457,4.4545,4.4491,4.4521,4.4591,4.4618,4.4719,4.4606,4.4714,4.4718,4.4696,4.4915,4.4945,4.5112,4.4845,4.4849,4.4852,0,4.4013,4.4083,4.426,4.4318,4.4354,4.4436,4.4515,4.4589,4.4649,4.4659,4.4714,4.4702,4.4808,4.4731,4.4876,4.4799,4.4844,4.4864,4.4871,4.4879,4.4792,4.4928,4.5166,4.519,4.4889,4.4886,4.4883,0,4.4156,4.4296,4.4419,4.4453,4.4525,4.4582,4.4615,4.467,4.4722,4.4791,4.4824,4.4906,4.495,4.5012,4.5022,4.4965,4.5167,4.5091,4.5177,4.5177,4.522,4.5217,4.5466,4.5252,4.5252,4.5251,4.5251,0,4.4355,4.4464,4.4484,4.456,4.468,4.4683,4.4801,4.4829,4.4878,4.4958,4.4938,4.5013,4.5022,4.5099,4.5108,4.5225,4.5246,4.5256,4.5257,4.5257,4.5255,4.5285,4.5273,4.5258,4.5257,4.5255,4.5254,0,4.4536,4.4554,4.4686,4.4742,4.4758,4.4844,4.4892,4.4964,4.4982,4.5084,4.5107,4.5137,4.5227,4.5243,4.5349,4.5355,4.5494,4.5484,4.5474,4.5472,4.5556,4.5547,4.5831,4.5868,4.5632,4.5634,4.5636,0,4.4661,4.4744,4.4808,4.486,4.4895,4.4978,4.503,4.5036,4.5091,4.5164,4.5227,4.5314,4.5384,4.5529,4.556,4.5641,4.5631,4.5725,4.5643,4.564,4.563,4.5624,4.5631,4.574,4.5743,4.5745,4.5747,0,4.488,4.4884,4.496,4.5038,4.5101,4.5163,4.5222,4.5265,4.5278,4.5341,4.5432,4.5486,4.5594,4.568,4.576,4.5793,4.5772,4.5772,4.5796,4.5796,4.5786,4.579,4.5514,4.5765,4.5764,4.5762,4.5761,4.576,4.5035,4.5106,4.5162,4.5246,4.5291,4.5346,4.5415,4.5442,4.5518,4.5605,4.5604,4.5703,4.5759,4.5864,4.5902,4.5979,4.5949,4.5984,4.5993,4.6001,4.6008,4.5775,4.5994,4.5994,4.5993,4.5993,4.5993,0,4.5251,4.5285,4.5363,4.5445,4.5511,4.5485,4.5548,4.5605,4.5692,4.5746,4.5815,4.5919,4.6002,4.6039,4.612,4.6175,4.6167,4.6196,4.6191,4.6198,4.6031,4.6001,4.6201,4.6201,4.6201,4.6201,4.6201,4.6201,4.5371,4.5489,4.55,4.5639,4.5672,4.5769,4.5807,4.5857,4.5899,4.6016,4.6084,4.6107,4.6154,4.6239,4.6313,4.6322,4.6352,4.6385,4.6389,4.6232,4.6211,4.619,4.6162,4.6392,4.6392,4.655,4.6551,4.6552]},{"header":{"parameterUnit":"m.s-1","parameterCategory":1,"la1":30.2991,"la2":30.254,"lo1":-89.0895,"lo2":-89.0444,"dy":0.0017,"dx":0.0017,"nx":28,"ny":28,"refTime":"2023-08-18T09:00:00:Z","depth":0,"parameterNumber":3,"parameterNumberName":"V-component_of_WINDS"},"data":[0,0,0,0,0,0,0,0,0,0,0,0,0,0,0,0,0,0,0,0,0,0,0,0,0,0,0,0,0,0,0,0,0,0,0,0,0,0,0,0,0,0,0,0,0,0,0,0,0,0,0,0,0,0,0,0,0,0,1.4278,1.4279,0,1.4358,1.4359,1.4359,1.4366,1.4365,1.4364,1.4364,1.4445,1.4448,1.445,0,0,0,0,0,0,0,0,0,0,0,0,0,1.413,1.4133,1.4278,1.4279,1.428,1.4357,1.4359,1.436,1.4366,1.4365,1.4364,1.4363,1.4444,1.4447,1.4451,0,0,0,0,0,0,0,0,0,0,0,0,0,1.4201,1.4134,1.4278,1.4293,1.4295,1.4357,1.4359,1.436,1.4367,1.4365,1.4364,1.4363,1.4443,1.4447,1.4451,1.4504,0,0,1.4465,1.4467,0,0,0,0,0,0,0,0,1.4197,1.4206,1.429,1.4292,1.4294,1.4351,1.4336,1.4408,1.4367,1.4339,1.4364,1.4362,1.4414,1.4421,1.4439,1.4508,1.4511,1.4465,1.4468,1.447,1.4471,0,0,0,0,0,0,0,1.4192,1.4203,1.431,1.4291,1.4294,1.4295,1.4303,1.435,1.4383,1.4342,1.4342,1.4352,1.4415,1.4434,1.4441,1.4513,1.4465,1.4469,1.4472,1.4473,1.4628,1.4629,0,0,0,0,0,0,1.4184,1.4199,1.4307,1.4312,1.4241,1.4299,1.4308,1.4334,1.4383,1.4389,1.4353,1.4352,1.4428,1.4436,1.4444,1.4508,1.447,1.4474,1.4476,1.4626,1.4628,1.4629,0,0,0,0,0,0,1.4181,1.4194,1.4304,1.4255,1.427,1.4302,1.4331,1.4336,1.4355,1.4391,1.4397,1.4366,1.4427,1.4437,1.4489,1.4511,1.4476,1.448,1.4624,1.4627,1.4629,1.4638,0,0,0,0,0,0,1.4177,1.4193,1.4214,1.4256,1.4272,1.4348,1.4333,1.4339,1.4363,1.4362,1.4405,1.4411,1.4427,1.4482,1.4493,1.4516,1.4483,1.4623,1.4625,1.4628,1.4636,1.464,1.4644,0,0,0,0,0,1.4171,1.4213,1.4215,1.4228,1.4299,1.435,1.4359,1.4376,1.4365,1.4386,1.4408,1.441,1.4507,1.4487,1.45,1.4525,1.4621,1.4625,1.4628,1.4634,1.4639,1.4643,0,0,0,0,0,0,1.4173,1.4219,1.4221,1.4278,1.431,1.4351,1.4378,1.4381,1.4417,1.4415,1.4435,1.4444,1.4495,1.4515,1.4493,1.4578,1.4563,1.4568,1.4563,1.4568,1.4572,1.4566,1.4487,0,0,0,0,0,1.418,1.4218,1.4256,1.4302,1.4318,1.4345,1.4368,1.4378,1.4412,1.4425,1.4452,1.4484,1.4521,1.4546,1.4582,1.4638,1.4647,1.4661,1.4665,1.4668,1.4673,1.4703,1.4709,1.464,1.464,1.464,0,0,1.4195,1.4225,1.4247,1.4303,1.4329,1.4367,1.4356,1.4397,1.4425,1.4431,1.4481,1.4502,1.4539,1.4592,1.4617,1.461,1.4694,1.4672,1.4675,1.4678,1.4707,1.4713,1.4719,1.4642,1.4642,1.4641,0,0,1.4242,1.4268,1.4309,1.4335,1.4374,1.4391,1.4401,1.4441,1.4455,1.4505,1.451,1.4543,1.4608,1.4634,1.4655,1.4709,1.4711,1.4721,1.4742,1.477,1.4776,1.4781,1.4799,1.4806,1.4725,1.4725,1.4725,0,1.4255,1.4313,1.433,1.437,1.4394,1.4401,1.4442,1.4466,1.4515,1.4531,1.4523,1.4603,1.4629,1.4687,1.47,1.4718,1.4729,1.4716,1.4774,1.4779,1.4784,1.4802,1.4809,1.4726,1.4726,1.4726,1.4726,0,1.4327,1.4367,1.4395,1.4442,1.4469,1.4509,1.4532,1.4557,1.4564,1.4582,1.4632,1.4663,1.4705,1.472,1.4728,1.478,1.4774,1.477,1.4755,1.4791,1.4808,1.4815,1.4727,1.4727,1.4727,1.4727,0,0,1.4379,1.4433,1.4443,1.4464,1.4506,1.4537,1.4577,1.4618,1.4639,1.4672,1.4705,1.4759,1.4754,1.4779,1.4789,1.4814,1.4854,1.4806,1.4808,1.4814,1.4911,1.4915,1.4922,1.4855,1.4857,1.4858,1.4908,0,1.443,1.4502,1.4517,1.4579,1.4615,1.4621,1.4656,1.4685,1.4702,1.4735,1.4754,1.4791,1.4783,1.4798,1.4823,1.4844,1.4874,1.484,1.4886,1.4888,1.4877,1.4932,1.4935,1.4982,1.4915,1.4916,1.4917,0,1.4499,1.4533,1.4599,1.4635,1.465,1.4682,1.472,1.4751,1.4784,1.4794,1.4821,1.4828,1.4869,1.4852,1.4908,1.4885,1.4904,1.4917,1.4919,1.4924,1.4905,1.4938,1.4997,1.5004,1.4928,1.4927,1.4926,0,1.4529,1.4591,1.4638,1.4656,1.4699,1.4721,1.474,1.4771,1.4795,1.4828,1.4843,1.488,1.49,1.4929,1.4946,1.4932,1.5,1.4984,1.5009,1.5009,1.5024,1.5023,1.5087,1.5037,1.5036,1.5036,1.5036,0,1.4585,1.4624,1.4652,1.4681,1.4725,1.4742,1.4785,1.4804,1.4831,1.4863,1.487,1.49,1.4921,1.4953,1.4966,1.501,1.5019,1.5028,1.5031,1.5028,1.5027,1.5041,1.5038,1.5038,1.5038,1.5037,1.5037,0,1.4626,1.4647,1.4698,1.4734,1.4744,1.4775,1.4806,1.4834,1.4851,1.4891,1.4901,1.4927,1.4965,1.4985,1.5033,1.5041,1.509,1.5092,1.5079,1.5081,1.5104,1.5102,1.518,1.5191,1.5133,1.5134,1.5134,0,1.466,1.4691,1.473,1.4752,1.4772,1.4807,1.483,1.4847,1.4871,1.491,1.4933,1.4971,1.5003,1.5063,1.5086,1.5122,1.5124,1.5149,1.513,1.5124,1.5124,1.5122,1.5124,1.5152,1.5153,1.5153,1.5154,0,1.4718,1.4727,1.476,1.4797,1.4825,1.4854,1.4884,1.4901,1.4923,1.4949,1.4988,1.5012,1.506,1.5098,1.5135,1.5154,1.5157,1.5159,1.5167,1.5164,1.5155,1.5159,1.5089,1.5158,1.5157,1.5157,1.5157,1.5157,1.4757,1.4784,1.4816,1.4852,1.4876,1.4903,1.493,1.495,1.4983,1.5023,1.5031,1.5072,1.5102,1.5153,1.5172,1.5204,1.5199,1.521,1.5213,1.5215,1.5216,1.515,1.5211,1.5211,1.5211,1.5211,1.5211,0,1.4815,1.4835,1.4869,1.4909,1.4938,1.4938,1.497,1.4994,1.5029,1.5058,1.5088,1.5132,1.5168,1.5193,1.523,1.525,1.5252,1.5259,1.5258,1.5262,1.5219,1.5209,1.5257,1.5256,1.5256,1.5256,1.5256,1.5256,1.4849,1.4894,1.4905,1.4961,1.4981,1.5021,1.5039,1.5064,1.5086,1.5135,1.5165,1.5181,1.5207,1.5245,1.5278,1.5284,1.5297,1.5304,1.531,1.527,1.5265,1.526,1.5251,1.5307,1.5307,1.535,1.535,1.5351]}]]